Time,TemperatureF,DewpointF,PressureIn,WindDirection,WindDirectionDegrees,WindSpeedMPH,WindSpeedGustMPH,Humidity,HourlyPrecipIn,Conditions,Clouds,dailyrainin,SoftwareType,DateUTC
2013-04-15 00:02:00,67.0,64.0,30.02,ENE,74,1.0,-999.0,91,-99.99,,,-99.99,,2013-04-15 10:02:00,
2013-04-15 00:13:00,67.0,64.0,30.02,ENE,74,1.0,-999.0,91,-99.99,,,-99.99,,2013-04-15 10:13:00,
2013-04-15 00:22:00,67.0,65.0,30.02,ENE,74,0.0,-999.0,92,-99.99,,,-99.99,,2013-04-15 10:22:00,
2013-04-15 00:33:00,66.0,64.0,30.01,ENE,74,0.0,-999.0,92,-99.99,,,-99.99,,2013-04-15 10:33:00,
2013-04-15 00:42:00,66.0,64.0,30.01,ENE,74,0.0,-999.0,92,-99.99,,,-99.99,,2013-04-15 10:42:00,
2013-04-15 00:52:00,66.0,63.0,30.01,ENE,66,1.0,-999.0,90,-99.99,,,-99.99,,2013-04-15 10:52:00,
2013-04-15 01:02:00,66.0,63.0,30.01,ENE,66,1.0,-999.0,91,-99.99,,,-99.99,,2013-04-15 11:02:00,
2013-04-15 01:12:00,66.0,63.0,30.01,ENE,66,1.0,-999.0,91,-99.99,,,-99.99,,2013-04-15 11:12:00,
2013-04-15 01:22:00,66.0,63.0,30.01,NE,51,1.0,-999.0,91,-99.99,,,-99.99,,2013-04-15 11:22:00,
2013-04-15 01:32:00,66.0,63.0,30.01,NE,51,2.0,-999.0,91,-99.99,,,-99.99,,2013-04-15 11:32:00,
2013-04-15 01:42:00,66.0,63.0,30.01,NE,51,2.0,-999.0,91,-99.99,,,-99.99,,2013-04-15 11:42:00,
2013-04-15 01:52:00,66.0,63.0,30.01,NE,49,2.0,-999.0,91,-99.99,,,-99.99,,2013-04-15 11:52:00,
2013-04-15 02:03:00,66.0,63.0,30.00,NE,50,2.0,-999.0,91,-99.99,,,-99.99,,2013-04-15 12:03:00,
2013-04-15 02:13:00,66.0,63.0,30.00,NE,50,2.0,-999.0,91,-99.99,,,-99.99,,2013-04-15 12:13:00,
2013-04-15 02:22:00,66.0,64.0,30.00,NE,50,2.0,-999.0,92,-99.99,,,-99.99,,2013-04-15 12:22:00,
2013-04-15 02:33:00,66.0,64.0,30.00,NE,51,1.0,-999.0,93,-99.99,,,-99.99,,2013-04-15 12:33:00,
2013-04-15 02:43:00,66.0,64.0,30.00,NE,51,1.0,-999.0,93,-99.99,,,-99.99,,2013-04-15 12:43:00,
2013-04-15 02:52:00,66.0,64.0,29.99,ENE,78,0.0,-999.0,93,-99.99,,,-99.99,,2013-04-15 12:52:00,
2013-04-15 03:03:00,66.0,64.0,29.99,ENE,78,0.0,-999.0,93,-99.99,,,-99.99,,2013-04-15 13:03:00,
2013-04-15 03:12:00,66.0,64.0,29.99,ENE,78,0.0,-999.0,93,-99.99,,,-99.99,,2013-04-15 13:12:00,
2013-04-15 03:22:00,66.0,64.0,29.98,ENE,78,0.0,-999.0,94,-99.99,,,-99.99,,2013-04-15 13:22:00,
2013-04-15 03:32:00,65.0,63.0,29.98,ENE,76,0.0,-999.0,94,-99.99,,,-99.99,,2013-04-15 13:32:00,
2013-04-15 03:42:00,65.0,63.0,29.98,ENE,76,0.0,-999.0,94,-99.99,,,-99.99,,2013-04-15 13:42:00,
2013-04-15 03:52:00,65.0,63.0,29.98,ENE,76,0.0,-999.0,94,-99.99,,,-99.99,,2013-04-15 13:52:00,
2013-04-15 04:03:00,64.0,62.0,29.98,ENE,77,0.0,-999.0,94,-99.99,,,-99.99,,2013-04-15 14:03:00,
2013-04-15 04:12:00,64.0,62.0,29.98,ENE,77,0.0,-999.0,94,-99.99,,,-99.99,,2013-04-15 14:12:00,
2013-04-15 04:21:00,64.0,62.0,29.98,ENE,77,0.0,-999.0,93,-99.99,,,-99.99,,2013-04-15 14:21:00,
2013-04-15 04:32:00,63.0,60.0,29.97,ENE,78,0.0,-999.0,91,-99.99,,,-99.99,,2013-04-15 14:32:00,
2013-04-15 04:43:00,63.0,60.0,29.97,ENE,78,0.0,-999.0,91,-99.99,,,-99.99,,2013-04-15 14:43:00,
2013-04-15 04:52:00,64.0,61.0,29.98,ENE,78,1.0,-999.0,90,-99.99,,,-99.99,,2013-04-15 14:52:00,
2013-04-15 05:03:00,64.0,61.0,29.98,ENE,76,1.0,-999.0,89,-99.99,,,-99.99,,2013-04-15 15:03:00,
2013-04-15 05:12:00,64.0,61.0,29.98,ENE,76,1.0,-999.0,89,-99.99,,,-99.99,,2013-04-15 15:12:00,
2013-04-15 05:22:00,65.0,62.0,29.98,ENE,78,1.0,-999.0,89,-99.99,,,-99.99,,2013-04-15 15:22:00,
2013-04-15 05:34:00,65.0,61.0,29.99,East,80,1.0,-999.0,88,-99.99,,,-99.99,,2013-04-15 15:34:00,
2013-04-15 05:43:00,65.0,61.0,29.99,East,80,1.0,-999.0,88,-99.99,,,-99.99,,2013-04-15 15:43:00,
2013-04-15 05:53:00,64.0,61.0,29.99,East,80,0.0,-999.0,89,-99.99,,,-99.99,,2013-04-15 15:53:00,
2013-04-15 06:03:00,64.0,61.0,29.99,East,80,0.0,-999.0,89,-99.99,,,-99.99,,2013-04-15 16:03:00,
2013-04-15 06:13:00,64.0,61.0,29.99,East,80,0.0,-999.0,89,-99.99,,,-99.99,,2013-04-15 16:13:00,
2013-04-15 06:23:00,63.0,60.0,30.00,East,80,1.0,-999.0,90,-99.99,,,-99.99,,2013-04-15 16:23:00,
2013-04-15 06:32:00,63.0,60.0,30.00,ENE,63,2.0,-999.0,90,-99.99,,,-99.99,,2013-04-15 16:32:00,
2013-04-15 06:43:00,63.0,60.0,30.00,ENE,63,2.0,-999.0,90,-99.99,,,-99.99,,2013-04-15 16:43:00,
2013-04-15 06:52:00,63.0,60.0,30.01,ENE,63,2.0,-999.0,90,-99.99,,,-99.99,,2013-04-15 16:52:00,
2013-04-15 07:03:00,63.0,60.0,30.02,ENE,63,2.0,-999.0,90,-99.99,,,-99.99,,2013-04-15 17:03:00,
2013-04-15 07:21:00,64.0,61.0,30.03,ENE,63,2.0,-999.0,90,-99.99,,,-99.99,,2013-04-15 17:21:00,
2013-04-15 07:32:00,64.0,61.0,30.03,ENE,61,2.0,-999.0,89,-99.99,,,-99.99,,2013-04-15 17:32:00,
2013-04-15 07:43:00,64.0,61.0,30.03,ENE,61,2.0,-999.0,89,-99.99,,,-99.99,,2013-04-15 17:43:00,
2013-04-15 07:52:00,66.0,62.0,30.03,ENE,60,1.0,-999.0,88,-99.99,,,-99.99,,2013-04-15 17:52:00,
2013-04-15 08:02:00,68.0,64.0,30.04,ENE,60,1.0,-999.0,86,-99.99,,,-99.99,,2013-04-15 18:02:00,
2013-04-15 08:12:00,68.0,64.0,30.04,ENE,60,1.0,-999.0,86,-99.99,,,-99.99,,2013-04-15 18:12:00,
2013-04-15 08:22:00,71.0,65.0,30.05,ENE,60,0.0,-999.0,81,-99.99,,,-99.99,,2013-04-15 18:22:00,
2013-04-15 08:32:00,74.0,65.0,30.05,NE,47,0.0,-999.0,73,-99.99,,,-99.99,,2013-04-15 18:32:00,
2013-04-15 08:42:00,74.0,65.0,30.05,NE,47,0.0,-999.0,73,-99.99,,,-99.99,,2013-04-15 18:42:00,
2013-04-15 08:52:00,74.0,65.0,30.05,NNW,336,1.0,-999.0,73,-99.99,,,-99.99,,2013-04-15 18:52:00,
2013-04-15 09:12:00,74.0,65.0,30.05,West,279,0.0,-999.0,73,-99.99,,,-99.99,,2013-04-15 19:12:00,
2013-04-15 09:21:00,75.0,65.0,30.06,West,263,1.0,-999.0,72,-99.99,,,-99.99,,2013-04-15 19:21:00,
2013-04-15 09:33:00,75.0,65.0,30.06,NW,323,2.0,-999.0,72,-99.99,,,-99.99,,2013-04-15 19:33:00,
2013-04-15 09:54:00,75.0,65.0,30.06,NW,322,2.0,-999.0,71,-99.99,,,-99.99,,2013-04-15 19:54:00,
2013-04-15 10:02:00,75.0,66.0,30.06,West,280,1.0,-999.0,73,-99.99,,,-99.99,,2013-04-15 20:02:00,
2013-04-15 10:11:00,75.0,66.0,30.06,West,280,1.0,-999.0,73,-99.99,,,-99.99,,2013-04-15 20:11:00,
2013-04-15 10:22:00,75.0,66.0,30.07,NW,306,3.0,-999.0,73,-99.99,,,-99.99,,2013-04-15 20:22:00,
2013-04-15 10:32:00,75.0,66.0,30.07,WNW,282,2.0,-999.0,73,-99.99,,,-99.99,,2013-04-15 20:32:00,
2013-04-15 10:42:00,75.0,66.0,30.07,WNW,282,2.0,-999.0,73,-99.99,,,-99.99,,2013-04-15 20:42:00,
2013-04-15 10:52:00,75.0,65.0,30.06,West,273,2.0,-999.0,72,-99.99,,,-99.99,,2013-04-15 20:52:00,
2013-04-15 11:02:00,77.0,66.0,30.06,NW,325,3.0,-999.0,70,-99.99,,,-99.99,,2013-04-15 21:02:00,
2013-04-15 11:12:00,77.0,66.0,30.06,NW,325,3.0,-999.0,70,-99.99,,,-99.99,,2013-04-15 21:12:00,
2013-04-15 11:22:00,77.0,66.0,30.05,NNW,327,3.0,-999.0,69,-99.99,,,-99.99,,2013-04-15 21:22:00,
2013-04-15 11:32:00,77.0,66.0,30.05,ENE,60,4.0,-999.0,68,-99.99,,,-99.99,,2013-04-15 21:32:00,
2013-04-15 11:42:00,77.0,66.0,30.05,ENE,60,4.0,-999.0,68,-99.99,,,-99.99,,2013-04-15 21:42:00,
2013-04-15 11:52:00,78.0,66.0,30.05,NNW,344,4.0,-999.0,66,-99.99,,,-99.99,,2013-04-15 21:52:00,
2013-04-15 12:02:00,78.0,66.0,30.04,WNW,290,4.0,-999.0,67,-99.99,,,-99.99,,2013-04-15 22:02:00,
2013-04-15 12:13:00,78.0,66.0,30.04,WNW,290,4.0,-999.0,67,-99.99,,,-99.99,,2013-04-15 22:13:00,
2013-04-15 12:22:00,79.0,67.0,30.05,NNE,17,5.0,-999.0,66,-99.99,,,-99.99,,2013-04-15 22:22:00,
2013-04-15 12:32:00,79.0,66.0,30.04,West,279,5.0,-999.0,65,-99.99,,,-99.99,,2013-04-15 22:32:00,
2013-04-15 12:42:00,79.0,66.0,30.04,West,279,5.0,-999.0,65,-99.99,,,-99.99,,2013-04-15 22:42:00,
2013-04-15 12:52:00,79.0,66.0,30.04,NNW,331,5.0,-999.0,64,-99.99,,,-99.99,,2013-04-15 22:52:00,
2013-04-15 13:02:00,79.0,66.0,30.03,NNE,33,5.0,-999.0,65,-99.99,,,-99.99,,2013-04-15 23:02:00,
2013-04-15 13:12:00,79.0,66.0,30.03,NNE,33,5.0,-999.0,65,-99.99,,,-99.99,,2013-04-15 23:12:00,
2013-04-15 13:22:00,79.0,66.0,30.03,NE,38,5.0,-999.0,65,-99.99,,,-99.99,,2013-04-15 23:22:00,
2013-04-15 13:32:00,79.0,66.0,30.03,NNW,347,5.0,-999.0,64,-99.99,,,-99.99,,2013-04-15 23:32:00,
2013-04-15 13:42:00,79.0,66.0,30.03,NNW,347,5.0,-999.0,64,-99.99,,,-99.99,,2013-04-15 23:42:00,
2013-04-15 13:52:00,79.0,66.0,30.02,NNW,336,5.0,-999.0,64,-99.99,,,-99.99,,2013-04-15 23:52:00,
2013-04-15 14:02:00,79.0,66.0,30.01,NW,326,5.0,-999.0,65,-99.99,,,-99.99,,2013-04-16 00:02:00,
2013-04-15 14:11:00,79.0,66.0,30.01,NW,326,5.0,-999.0,65,-99.99,,,-99.99,,2013-04-16 00:11:00,
2013-04-15 14:21:00,79.0,66.0,30.02,NW,310,6.0,-999.0,64,-99.99,,,-99.99,,2013-04-16 00:21:00,
2013-04-15 14:31:00,79.0,66.0,30.02,North,349,5.0,-999.0,65,-99.99,,,-99.99,,2013-04-16 00:31:00,
2013-04-15 14:42:00,79.0,66.0,30.02,North,349,5.0,-999.0,65,-99.99,,,-99.99,,2013-04-16 00:42:00,
2013-04-15 14:52:00,79.0,66.0,30.02,NW,312,5.0,-999.0,64,-99.99,,,-99.99,,2013-04-16 00:52:00,
2013-04-15 15:02:00,78.0,66.0,30.02,WNW,296,5.0,-999.0,66,-99.99,,,-99.99,,2013-04-16 01:02:00,
2013-04-15 15:12:00,78.0,66.0,30.02,WNW,296,5.0,-999.0,66,-99.99,,,-99.99,,2013-04-16 01:12:00,
2013-04-15 15:22:00,77.0,66.0,30.02,NW,318,4.0,-999.0,69,-99.99,,,-99.99,,2013-04-16 01:22:00,
2013-04-15 15:32:00,77.0,67.0,30.02,West,274,4.0,-999.0,72,-99.99,,,-99.99,,2013-04-16 01:32:00,
2013-04-15 15:42:00,77.0,67.0,30.02,West,274,4.0,-999.0,72,-99.99,,,-99.99,,2013-04-16 01:42:00,
2013-04-15 15:52:00,76.0,68.0,30.03,WSW,252,3.0,-999.0,76,-99.99,,,-99.99,,2013-04-16 01:52:00,
2013-04-15 16:02:00,74.0,67.0,30.03,SW,229,2.0,-999.0,80,-99.99,,,-99.99,,2013-04-16 02:02:00,
2013-04-15 16:12:00,74.0,67.0,30.03,SW,229,2.0,-999.0,80,-99.99,,,-99.99,,2013-04-16 02:12:00,
2013-04-15 16:22:00,74.0,67.0,30.03,West,269,2.0,-999.0,80,-99.99,,,-99.99,,2013-04-16 02:22:00,
2013-04-15 16:32:00,74.0,68.0,30.02,West,263,2.0,-999.0,81,-99.99,,,-99.99,,2013-04-16 02:32:00,
2013-04-15 16:42:00,74.0,68.0,30.02,West,263,2.0,-999.0,81,-99.99,,,-99.99,,2013-04-16 02:42:00,
2013-04-15 16:51:00,74.0,67.0,30.02,West,264,2.0,-999.0,80,-99.99,,,-99.99,,2013-04-16 02:51:00,
2013-04-15 17:02:00,75.0,69.0,30.02,WNW,298,2.0,-999.0,81,-99.99,,,-99.99,,2013-04-16 03:02:00,
2013-04-15 17:12:00,75.0,69.0,30.02,WNW,298,2.0,-999.0,81,-99.99,,,-99.99,,2013-04-16 03:12:00,
2013-04-15 17:22:00,74.0,67.0,30.02,NW,325,5.0,-999.0,80,-99.99,,,-99.99,,2013-04-16 03:22:00,
2013-04-15 17:33:00,75.0,68.0,30.02,NNW,327,4.0,-999.0,79,-99.99,,,-99.99,,2013-04-16 03:33:00,
2013-04-15 17:43:00,75.0,68.0,30.02,NNW,327,4.0,-999.0,79,-99.99,,,-99.99,,2013-04-16 03:43:00,
2013-04-15 17:52:00,74.0,68.0,30.02,NW,310,4.0,-999.0,81,-99.99,,,-99.99,,2013-04-16 03:52:00,
2013-04-15 18:02:00,73.0,67.0,30.02,NW,309,3.0,-999.0,82,-99.99,,,-99.99,,2013-04-16 04:02:00,
2013-04-15 18:12:00,73.0,67.0,30.02,NW,309,3.0,-999.0,82,-99.99,,,-99.99,,2013-04-16 04:12:00,
2013-04-15 18:23:00,73.0,68.0,30.03,NW,317,3.0,-999.0,83,-99.99,,,-99.99,,2013-04-16 04:23:00,
2013-04-15 18:32:00,72.0,67.0,30.03,NW,313,4.0,-999.0,83,-99.99,,,-99.99,,2013-04-16 04:32:00,
2013-04-15 18:42:00,72.0,67.0,30.03,NW,313,4.0,-999.0,83,-99.99,,,-99.99,,2013-04-16 04:42:00,
2013-04-15 18:52:00,72.0,67.0,30.04,NW,315,4.0,-999.0,85,-99.99,,,-99.99,,2013-04-16 04:52:00,
2013-04-15 19:02:00,72.0,68.0,30.05,NNW,342,4.0,-999.0,86,-99.99,,,-99.99,,2013-04-16 05:02:00,
2013-04-15 19:12:00,72.0,68.0,30.05,NNW,342,4.0,-999.0,86,-99.99,,,-99.99,,2013-04-16 05:12:00,
2013-04-15 19:22:00,71.0,67.0,30.06,NNE,22,3.0,-999.0,86,-99.99,,,-99.99,,2013-04-16 05:22:00,
2013-04-15 19:32:00,71.0,67.0,30.06,North,355,3.0,-999.0,87,-99.99,,,-99.99,,2013-04-16 05:32:00,
2013-04-15 19:42:00,71.0,67.0,30.06,North,355,3.0,-999.0,87,-99.99,,,-99.99,,2013-04-16 05:42:00,
2013-04-15 19:51:00,71.0,67.0,30.06,NNE,18,2.0,-999.0,88,-99.99,,,-99.99,,2013-04-16 05:51:00,
2013-04-15 20:02:00,70.0,67.0,30.06,NNW,344,3.0,-999.0,89,-99.99,,,-99.99,,2013-04-16 06:02:00,
2013-04-15 20:12:00,70.0,67.0,30.06,NNW,344,3.0,-999.0,89,-99.99,,,-99.99,,2013-04-16 06:12:00,
2013-04-15 20:21:00,70.0,67.0,30.06,NNW,342,3.0,-999.0,89,-99.99,,,-99.99,,2013-04-16 06:21:00,
2013-04-15 20:32:00,70.0,67.0,30.07,NNW,346,1.0,-999.0,89,-99.99,,,-99.99,,2013-04-16 06:32:00,
2013-04-15 20:42:00,70.0,67.0,30.07,NNW,346,1.0,-999.0,89,-99.99,,,-99.99,,2013-04-16 06:42:00,
2013-04-15 20:51:00,69.0,66.0,30.07,North,5,0.0,-999.0,89,-99.99,,,-99.99,,2013-04-16 06:51:00,
2013-04-15 21:02:00,69.0,66.0,30.07,NW,326,0.0,-999.0,90,-99.99,,,-99.99,,2013-04-16 07:02:00,
2013-04-15 21:12:00,69.0,66.0,30.07,NW,326,0.0,-999.0,90,-99.99,,,-99.99,,2013-04-16 07:12:00,
2013-04-15 21:21:00,69.0,66.0,30.07,NW,326,0.0,-999.0,90,-99.99,,,-99.99,,2013-04-16 07:21:00,
2013-04-15 21:32:00,69.0,66.0,30.08,NW,319,0.0,-999.0,89,-99.99,,,-99.99,,2013-04-16 07:32:00,
2013-04-15 21:42:00,69.0,66.0,30.08,NW,319,0.0,-999.0,89,-99.99,,,-99.99,,2013-04-16 07:42:00,
2013-04-15 21:53:00,68.0,65.0,30.08,North,360,0.0,-999.0,89,-99.99,,,-99.99,,2013-04-16 07:53:00,
2013-04-15 22:02:00,68.0,64.0,30.09,NNE,30,1.0,-999.0,88,-99.99,,,-99.99,,2013-04-16 08:02:00,
2013-04-15 22:11:00,68.0,64.0,30.09,NNE,30,1.0,-999.0,88,-99.99,,,-99.99,,2013-04-16 08:11:00,
2013-04-15 22:22:00,68.0,64.0,30.09,NNE,30,0.0,-999.0,88,-99.99,,,-99.99,,2013-04-16 08:22:00,
2013-04-15 22:32:00,67.0,63.0,30.09,NNE,30,1.0,-999.0,88,-99.99,,,-99.99,,2013-04-16 08:32:00,
2013-04-15 22:42:00,67.0,63.0,30.09,NNE,30,1.0,-999.0,88,-99.99,,,-99.99,,2013-04-16 08:42:00,
2013-04-15 22:51:00,68.0,64.0,30.09,ENE,76,1.0,-999.0,88,-99.99,,,-99.99,,2013-04-16 08:51:00,
2013-04-15 23:02:00,68.0,65.0,30.09,ENE,78,1.0,-999.0,89,-99.99,,,-99.99,,2013-04-16 09:02:00,
2013-04-15 23:11:00,68.0,65.0,30.09,ENE,78,1.0,-999.0,89,-99.99,,,-99.99,,2013-04-16 09:11:00,
2013-04-15 23:22:00,68.0,64.0,30.09,East,81,0.0,-999.0,88,-99.99,,,-99.99,,2013-04-16 09:22:00,
2013-04-15 23:32:00,67.0,63.0,30.09,East,81,0.0,-999.0,88,-99.99,,,-99.99,,2013-04-16 09:32:00,
2013-04-15 23:42:00,67.0,63.0,30.09,East,81,0.0,-999.0,88,-99.99,,,-99.99,,2013-04-16 09:42:00,
2013-04-15 23:52:00,67.0,64.0,30.08,East,81,0.0,-999.0,89,-99.99,,,-99.99,,2013-04-16 09:52:00,